Regional Weather Roundup
Issued by NWS

Home | Current Version | Previous Version | Text Only | Print | Product List | Glossary Off
Versions: 1 2 3 4 5 6 7 8 9 10 11 12 13 14 15 16 17 18 19 20 21 22 23 24 25 26 27 28 29 30 31 32 33 34 35 36 37 38 39 40 41 42 43 44 45 46 47 48 49 50

000
ASUS45 KCYS 251710
RWRWY

WYOMING REGIONAL WEATHER ROUNDUP
NATIONAL WEATHER SERVICE CHEYENNE WY
1100 AM MDT SAT APR 25 2015

NOTE:  "FAIR" INDICATES FEW OR NO CLOUDS BELOW 12,000 FEET
WITH NO SIGNIFICANT WEATHER AND/OR OBSTRUCTIONS TO VISIBILITY.

WYZ001-251800-
YELLOWSTONE NATIONAL PARK

CITY           SKY/WX    TMP DP  RH WIND       PRES   REMARKS
LK YELLOWSTONE   N/A     31  25  78 W6        29.81S WCI  25
W YELLOWSTONE  NOT AVBL

$$
WYZ002>013-054>058-071-098>099-251800-
NORTHERN WYOMING

CITY           SKY/WX    TMP DP  RH WIND       PRES   REMARKS
JACKSON        MOSUNNY   43  27  52 S9        29.79S
CODY           CLOUDY    39  36  87 N18       29.75F WCI  30
GREYBULL       LGT RAIN  43  39  86 NW12      29.74S
WORLAND        CLOUDY    42  38  85 N13       29.74F
SHERIDAN       CLOUDY    41  35  79 NW20      29.76R
BUFFALO        CLOUDY    42  36  79 N24G37    29.71R
GILLETTE       FAIR      57  41  55 NW9       29.67R
HULETT         CLOUDY    61  39  44 SW12      29.67S
NEWCASTLE      FAIR      59  41  51 SE10G17   29.70S

$$
WYZ014>020-022>026-101>103-251800-
CENTRAL WYOMING

CITY           SKY/WX    TMP DP  RH WIND       PRES   REMARKS
BIG PINEY      PTSUNNY   43  28  55 VRB3      29.81S
PINEDALE       FAIR      41  28  60 W6        29.81S
DUBOIS         CLOUDY    43  27  52 N13G18    29.74F
LANDER         FAIR      54  33  45 NE8       29.69R
RIVERTON       FAIR      54  34  46 NE3       29.70R
CASPER         FAIR      55  34  45 SW25G35   29.70R
DOUGLAS        FAIR      57  35  43 SW14      29.71R

$$
WYZ021-027>030-104>119-251800-
SOUTHERN WYOMING

CITY           SKY/WX    TMP DP  RH WIND       PRES   REMARKS
EVANSTON       PTSUNNY   41  29  62 SW9       29.84R
KEMMERER       FAIR      41  30  65 W14       29.84R
FORT BRIDGER   SUNNY     45  27  49 W13G20    29.86S
ROCK SPRINGS   FAIR      44  28  53 W18       29.82S
DIXON          LGT RAIN  37  36  94 SE7       29.90S WCI  32
RAWLINS        FAIR      43  27  53 SW17G29   29.82R
SARATOGA       CLOUDY    43  30  61 W14       29.86R
LARAMIE        FAIR      46  33  60 W6        29.79F
CHEYENNE       FAIR      58  30  34 VRB3      29.74F
TORRINGTON     FAIR      60  42  51 S6        29.70F
PINE BLUFFS    FAIR      63  32  31 NW13G18   29.73S

$$



USA.gov is the U.S. government's official web portal to all federal, state and local government web resources and services.